Other Public Products
Issued by NWS Grand Forks, ND

Home | Current Version | Previous Version | Text Only | Print | Product List | Glossary On
Versions: 1 2 3 4 5 6 7 8 9 10 11 12 13 14 15 16 17 18 19 20 21 22 23 24 25 26 27 28 29 30 31 32 33 34 35 36 37 38 39 40 41 42 43 44 45 46 47 48 49 50
000
FPUS83 KFGF 030031
OPUFGF
PRAIRIE TO PINES WEATHER ROUNDUP
NATIONAL WEATHER SERVICE EASTERN NORTH DAKOTA/GRAND FORKS ND
700 PM CDT WED SEP 02 2015

 **SATELLITE DATA USED TO AUGMENT SKY COVER AT AUTOMATED STATIONS**
 *****  WEATHER ACROSS EASTERN NORTH DAKOTA  *****

CITY           SKY/WX    TMP DP  RH WIND       PRES   REMARKS
GRAND FORKS    MOSUNNY   86  63  45 S14       29.76S
6HR MIN TEMP:  83; 6HR MAX TEMP:  90;

GRAND FORKS AF SUNNY     85  65  49 S10       29.77S
GRAND CITY NWS   N/A     86 N/A N/A SE15        N/A
BUXTON         NOT AVBL
DEVILS LAKE    SUNNY     82  66  57 SE12      29.75S
6HR MIN TEMP:  82; 6HR MAX TEMP:  88;

FARGO          SUNNY     85  67  54 SE12      29.78S
6HR MIN TEMP:  85; 6HR MAX TEMP:  90;

WAHPETON ARPT  CLEAR     81  64  57 SE13G20   29.81R
$$

 *****  WEATHER ACROSS CENTRAL AND WESTERN NORTH DAKOTA  *****

CITY           SKY/WX    TMP DP  RH WIND       PRES   REMARKS
JAMESTOWN      SUNNY     84  70  62 SE13      29.75S
6HR MIN TEMP:  84; 6HR MAX TEMP:  90;

BISMARCK       SUNNY     90  63  40 SE10      29.71S HX  91
6HR MIN TEMP:  82; 6HR MAX TEMP:  94;

MINOT          SUNNY     91  60  35 SE13      29.67F HX  90
6HR MIN TEMP:  86; 6HR MAX TEMP:  95;

MINOT AFB      SUNNY     93  62  35 SE13      29.67S HX  93
6HR MIN TEMP:  90; 6HR MAX TEMP:  96;

GARRISON         N/A     88  62  41 SE8       29.70S
6HR MIN TEMP:  86; 6HR MAX TEMP:  95;

WILLISTON      PTSUNNY   96  45  17 CALM      29.63S HX  92
6HR MIN TEMP:  91; 6HR MAX TEMP: 100;

DICKINSON      SUNNY     94  45  18 S12       29.70R HX  90
6HR MIN TEMP:  91; 6HR MAX TEMP:  98;

HETTINGER      SUNNY     93  51  23 SE8       29.74S HX  90
6HR MIN TEMP:  89; 6HR MAX TEMP:  96;

$$

 *****  OTHER OBSERVATIONS NORTHEAST NORTH DAKOTA  *****

CITY           SKY/WX    TMP DP  RH WIND       PRES   REMARKS
WALHALLA       FAIR      82  68  61 MISG      29.76S
LANGDON        FAIR      84  66  54 SE13      29.79R
CAVALIER       FAIR      84  64  51 S9G18     29.76S
GRAFTON        FAIR      84  64  51 SE10      29.77S
CANDO          FAIR      84  66  54 SE17      29.75S
FORT TOTTEN    NOT AVBL
ROLLA            N/A     82  66  57 SE16      29.76S
RUGBY          FAIR      86  68  54 SE12      29.71R
 ***** THE ABOVE OBSERVATIONS ARE NON NWS ARE NOT QUALITY
        CONTROLLED AND MAY MIS-REPORT RAIN FOR SNOW...
$$

 *****  OTHER OBSERVATIONS SOUTHEAST NORTH DAKOTA *****

CITY           SKY/WX    TMP DP  RH WIND       PRES   REMARKS
COOPERSTOWN    NOT AVBL
VALLEY CITY    FAIR      82  72  69 SE10      29.78S
OAKES            N/A     84  82  94 SE15G22   29.76S HX 101
GWINNER        FAIR      82  73  74 SE13      29.78S
SHEYENNE NWR     N/A     84  71  65 SE12      29.95S
BUFFALO        NOT AVBL
WYNDMERE         N/A     82  72  69 SE10        N/A
 ***** THE ABOVE OBSERVATIONS ARE NON NWS ARE NOT QUALITY
       CONTROLLED AND MAY MIS-REPORT RAIN FOR SNOW...
$$

  *****  WEATHER ACROSS NORTHERN MINNESOTA  *****

CITY           SKY/WX    TMP DP  RH WIND       PRES   REMARKS
FLAG ISLAND    CLEAR     75  68  78 S10       29.83S
WARROAD        CLEAR     81  72  74 SE6       29.84S
ROSEAU         CLEAR     81  68  65 SE6       29.83R
HALLOCK        SUNNY     86  63  45 S8        29.77S
THF RVR FALLS  CLEAR     82  64  54 SE8       29.82R
6HR MIN TEMP:  82; 6HR MAX TEMP:  88;

HALSTAD        NOT AVBL
FOSSTON        CLEAR     82  63  51 SE9       29.84S
BAUDETTE       CLEAR     81  62  52 SE9       29.86S
6HR MIN TEMP:  81; 6HR MAX TEMP:  86;

WASKISH        CLEAR     79  66  65 E5        29.87S
CROOKSTON      SUNNY     84  64  51 SE10      29.80R
$$
  *****  WEATHER ACROSS CENTRAL AND WEST MINNESOTA  *****

CITY           SKY/WX    TMP DP  RH WIND       PRES   REMARKS
BEMIDJI        CLEAR     78  66  66 SE12      29.88R
PARK RAPIDS    CLEAR     80  66  62 SE10      29.87S
6HR MIN TEMP:  80; 6HR MAX TEMP:  85;

WADENA         PTCLDY    75  66  73 SE9       29.86S
DETROIT LAKES  PTCLDY    79  66  65 SE13G20   29.86R
MOORHEAD       SUNNY     82  66  57 SE9       29.80S
FERGUS FALLS   PTCLDY    81  68  65 SE10      29.81R
ELBOW LAKE     FAIR      77  70  78 SE14      29.83S
6HR MIN TEMP:  78; 6HR MAX TEMP:  82;

MORRIS MN      PTCLDY    79  72  78 E8        29.82R
STAPLES        CLEAR     73  66  78 SE6       29.88S
WHEATON        PTCLDY    77  70  78 SE16      29.82R
$$
  *****  WEATHER ELSEWHERE ACROSS MINNESOTA  *****

CITY           SKY/WX    TMP DP  RH WIND       PRES   REMARKS
DULUTH         CLEAR     69  63  81 E6        29.94F
6HR MIN TEMP:  66; 6HR MAX TEMP:  75;

INTRNTL FALLS  CLEAR     78  64  61 SE9       29.89S
6HR MIN TEMP:  78; 6HR MAX TEMP:  84;

ELY            CLEAR     72  63  73 CALM      29.95S
CLOQUET        CLEAR     70  63  78 CALM      29.94S
BRAINERD       CLEAR     72  65  78 E7        29.90S
6HR MIN TEMP:  72; 6HR MAX TEMP:  80;

HIBBING        CLEAR     74  66  76 E9        29.93R
6HR MIN TEMP:  74; 6HR MAX TEMP:  82;

ALEXANDRIA     PTCLDY    76  69  79 SE10      29.88R
6HR MIN TEMP:  76; 6HR MAX TEMP:  82;

SAINT CLOUD    MOCLDY    73  69  87 E7        29.88S
6HR MIN TEMP:  74; 6HR MAX TEMP:  78;

MINNEAPOLIS    PTCLDY    77  69  76 NE8       29.86F
6HR MIN TEMP:  73; 6HR MAX TEMP:  78;

$$

  *****  WEATHER ACROSS SOUTH DAKOTA  *****

CITY           SKY/WX    TMP DP  RH WIND       PRES   REMARKS
SIOUX FALLS    MOSUNNY   83  73  72 S15       29.80F
6HR MIN TEMP:  83; 6HR MAX TEMP:  86;

BROOKINGS      PTSUNNY   81  72  74 SE13      29.83S
WATERTOWN      MOSUNNY   85  73  67 SE12      29.80S HX  91
6HR MIN TEMP:  84; 6HR MAX TEMP:  89;

HURON          SUNNY     87  75  67 SE6       29.73S HX  96
6HR MIN TEMP:  84; 6HR MAX TEMP:  91;

SISSETON         N/A     83  73  72 SE10      29.78R
ABERDEEN       MOSUNNY   87  74  64 SE7       29.74S HX  95
6HR MIN TEMP:  84; 6HR MAX TEMP:  89;

MITCHELL       SUNNY     88  76  67 SE10      29.74S HX  99
PIERRE         SUNNY     91  70  49 E7        29.69S HX  96
6HR MIN TEMP:  80; 6HR MAX TEMP:  96;

MOBRIDGE       SUNNY     89  72  56 SE13      29.70R HX  96
RAPID CITY     SUNNY     93  49  22 SW5       29.76S HX  90
6HR MIN TEMP:  88; 6HR MAX TEMP:  97;

$$

  *****  SOME WEATHER IN NEARBY STATES *****

CITY           SKY/WX    TMP DP  RH WIND       PRES   REMARKS
GLASGOW MT     PTSUNNY   94  33  11 E3        29.61S
6HR MIN TEMP:  84; 6HR MAX TEMP:  95;

GREAT FALLS MT CLOUDY    78  32  18 NW15      29.73R
6HR MIN TEMP:  76; 6HR MAX TEMP:  86;

CHEYENNE WY    MOSUNNY   83  35  18 SW9       30.06R
6HR MIN TEMP:  83; 6HR MAX TEMP:  89;

SCOTTSBLUFF NE SUNNY     92  44  19 SE7       29.88S
6HR MIN TEMP:  87; 6HR MAX TEMP:  96;

OMAHA NE       MOCLDY    88  71  57 S15       29.83S HX  94
6HR MIN TEMP:  84; 6HR MAX TEMP:  91;

DES MOINES IA  PTCLDY    83  68  60 S7        29.89R
6HR MIN TEMP:  83; 6HR MAX TEMP:  89;

DAVENPORT IA   CLOUDY    82  70  66 SW6       29.95S
6HR MIN TEMP:  82; 6HR MAX TEMP:  84;

CHICAGO IL     MOCLDY    85  68  56 VRB7      29.96R
6HR MIN TEMP:  85; 6HR MAX TEMP:  90;

EAU CLAIRE WI  CLOUDY    71  66  84 NE5       29.88S
6HR MIN TEMP:  66; 6HR MAX TEMP:  74; 6HR PCP:  1.16;

LA CROSSE WI   PTCLDY    81  70  69 S10       29.87F
6HR MIN TEMP:  81; 6HR MAX TEMP:  87;

$$

  *****  SOME NATIONAL WEATHER *****

CITY           SKY/WX    TMP DP  RH WIND       PRES   REMARKS



USA.gov is the U.S. government's official web portal to all federal, state and local government web resources and services.